When you browse on this site, cookies collect data to enhance your experience and personalize the content and advertising you see.
Visit our Privacy Policy to learn more. By continuing to use the site, you agree to this use of cookies and data.
  • în România
  • Lista ţărilor
  • Pe 7 zile
  • Temperatura apei
  • Hartă satelitară
  • Meteo pe hartă
  • Widget-uri
  • user-avatar
    Intrare

    Meteo pe oră la Bismark

    Astăzi, 20 Mai, Luni

    Timp Temperatura Precipitaţii Vânt Presiune Umiditate
    00:00 +5°C° 0 mm 1 m/s 719 mmHg 76%
    01:00 +5°C° 0 mm 1 m/s 719 mmHg 79%
    02:00 +3°C° 0 mm 0 m/s 720 mmHg 82%
    03:00 +5°C° 0 mm 1 m/s 720 mmHg 80%
    04:00 +6°C° 0 mm 1 m/s 720 mmHg 79%
    05:00 +6°C° 0 mm 1 m/s 721 mmHg 78%
    06:00 +8°C° 0 mm 1 m/s 721 mmHg 71%
    07:00 +8°C° 0 mm 2 m/s 721 mmHg 64%
    08:00 +10°C° 0 mm 3 m/s 721 mmHg 57%
    09:00 +11°C° 0 mm 3 m/s 721 mmHg 52%
    10:00 +13°C° 0 mm 4 m/s 721 mmHg 47%
    11:00 +14°C° 0 mm 5 m/s 721 mmHg 43%
    12:00 +15°C° 0 mm 5 m/s 720 mmHg 42%
    13:00 +15°C° 0 mm 5 m/s 720 mmHg 42%
    14:00 +16°C° 0 mm 5 m/s 719 mmHg 41%
    15:00 +16°C° 0 mm 5 m/s 719 mmHg 43%
    16:00 +15°C° 0 mm 5 m/s 719 mmHg 45%
    17:00 +15°C° 0 mm 5 m/s 718 mmHg 47%
    18:00 +14°C° 0 mm 4 m/s 718 mmHg 54%
    19:00 +12°C° 0 mm 3 m/s 718 mmHg 60%
    20:00 +10°C° 0 mm 2 m/s 718 mmHg 67%
    21:00 +10°C° 0 mm 2 m/s 718 mmHg 70%
    22:00 +9°C° 0 mm 2 m/s 718 mmHg 72%
    23:00 +9°C° 0 mm 2 m/s 718 mmHg 75%

    Mâine, 21 Mai, Marţi

    Timp Temperatura Precipitaţii Vânt Presiune Umiditate
    00:00 +8°C° 0 mm 2 m/s 718 mmHg 77%
    01:00 +8°C° 0 mm 2 m/s 717 mmHg 78%
    02:00 +8°C° 0 mm 2 m/s 717 mmHg 80%
    03:00 +8°C° 0 mm 3 m/s 717 mmHg 79%
    04:00 +8°C° 0 mm 3 m/s 717 mmHg 78%
    05:00 +8°C° 0 mm 3 m/s 717 mmHg 78%
    06:00 +8°C° 0.1 mm 4 m/s 717 mmHg 74%
    07:00 +9°C° 0.1 mm 5 m/s 717 mmHg 69%
    08:00 +9°C° 0.1 mm 6 m/s 717 mmHg 65%
    09:00 +10°C° 0 mm 7 m/s 716 mmHg 62%
    10:00 +11°C° 0 mm 7 m/s 716 mmHg 58%
    11:00 +11°C° 0 mm 8 m/s 716 mmHg 54%
    12:00 +12°C° 0 mm 8 m/s 715 mmHg 54%
    13:00 +12°C° 0 mm 8 m/s 714 mmHg 54%
    14:00 +13°C° 0 mm 9 m/s 714 mmHg 53%
    15:00 +12°C° 0.1 mm 8 m/s 713 mmHg 55%
    16:00 +12°C° 0.1 mm 7 m/s 713 mmHg 56%
    17:00 +11°C° 0.1 mm 7 m/s 712 mmHg 58%
    18:00 +10°C° 0.2 mm 6 m/s 712 mmHg 62%
    19:00 +10°C° 0.2 mm 6 m/s 711 mmHg 66%
    20:00 +9°C° 0.2 mm 5 m/s 711 mmHg 70%
    21:00 +8°C° 1 mm 7 m/s 711 mmHg 75%
    22:00 +7°C° 1 mm 8 m/s 710 mmHg 79%
    23:00 +6°C° 1 mm 9 m/s 710 mmHg 84%

    Poimâine, 22 Mai, Miercuri

    Timp Temperatura Precipitaţii Vânt Presiune Umiditate
    00:00 +6°C° 2.1 mm 9 m/s 709 mmHg 86%
    01:00 +5°C° 2.1 mm 9 m/s 709 mmHg 88%
    02:00 +5°C° 2.1 mm 8 m/s 709 mmHg 90%
    03:00 +5°C° 1.2 mm 8 m/s 709 mmHg 90%
    04:00 +5°C° 1.2 mm 7 m/s 709 mmHg 90%
    05:00 +4°C° 1.2 mm 7 m/s 709 mmHg 91%
    06:00 +5°C° 0.1 mm 7 m/s 709 mmHg 90%
    07:00 +5°C° 0.1 mm 7 m/s 709 mmHg 89%
    08:00 +7°C° 0.1 mm 6 m/s 709 mmHg 88%
    09:00 +7°C° 0.1 mm 6 m/s 710 mmHg 87%
    10:00 +8°C° 0.1 mm 6 m/s 710 mmHg 87%
    11:00 +8°C° 0.1 mm 6 m/s 711 mmHg 86%
    12:00 +8°C° 0.4 mm 6 m/s 711 mmHg 86%
    13:00 +8°C° 0.4 mm 6 m/s 711 mmHg 87%
    14:00 +8°C° 0.4 mm 5 m/s 711 mmHg 87%
    15:00 +8°C° 0.1 mm 5 m/s 712 mmHg 87%
    16:00 +8°C° 0.1 mm 5 m/s 712 mmHg 87%
    17:00 +8°C° 0.1 mm 5 m/s 713 mmHg 87%
    18:00 +8°C° 0.1 mm 4 m/s 713 mmHg 89%
    19:00 +8°C° 0.1 mm 4 m/s 714 mmHg 91%
    20:00 +8°C° 0.1 mm 3 m/s 715 mmHg 92%
    21:00 +8°C° 0 mm 3 m/s 716 mmHg 94%
    22:00 +8°C° 0 mm 2 m/s 716 mmHg 95%
    23:00 +7°C° 0 mm 2 m/s 716 mmHg 96%

    23 Mai, Joi

    Timp Temperatura Precipitaţii Vânt Presiune Umiditate
    00:00 +7°C° 0 mm 2 m/s 717 mmHg 97%
    01:00 +6°C° 0 mm 2 m/s 717 mmHg 97%
    02:00 +6°C° 0 mm 2 m/s 717 mmHg 97%
    03:00 +7°C° 0 mm 1 m/s 717 mmHg 97%
    04:00 +7°C° 0 mm 1 m/s 718 mmHg 97%
    05:00 +7°C° 0 mm 1 m/s 718 mmHg 96%
    06:00 +8°C° 0 mm 1 m/s 718 mmHg 90%
    07:00 +10°C° 0 mm 1 m/s 719 mmHg 84%
    08:00 +12°C° 0 mm 2 m/s 719 mmHg 78%
    09:00 +13°C° 0 mm 2 m/s 719 mmHg 76%
    10:00 +13°C° 0 mm 1 m/s 719 mmHg 73%
    11:00 +14°C° 0 mm 1 m/s 719 mmHg 71%
    12:00 +15°C° 0 mm 2 m/s 718 mmHg 68%
    13:00 +16°C° 0 mm 3 m/s 717 mmHg 65%
    14:00 +17°C° 0 mm 3 m/s 717 mmHg 62%
    15:00 +17°C° 0 mm 3 m/s 716 mmHg 65%
    16:00 +17°C° 0 mm 3 m/s 716 mmHg 68%
    17:00 +16°C° 0 mm 3 m/s 716 mmHg 70%
    18:00 +14°C° 0.2 mm 3 m/s 715 mmHg 77%
    19:00 +13°C° 0.2 mm 3 m/s 715 mmHg 83%
    20:00 +12°C° 0.2 mm 3 m/s 714 mmHg 90%
    21:00 +12°C° 0.5 mm 4 m/s 713 mmHg 91%
    22:00 +12°C° 0.5 mm 4 m/s 712 mmHg 92%
    23:00 +10°C° 0.5 mm 5 m/s 711 mmHg 93%

    24 Mai, Vineri

    Timp Temperatura Precipitaţii Vânt Presiune Umiditate
    00:00 +12°C° 4.2 mm 5 m/s 710 mmHg 94%
    01:00 +12°C° 4.2 mm 5 m/s 708 mmHg 95%
    02:00 +12°C° 4.2 mm 5 m/s 707 mmHg 96%
    03:00 +12°C° 12.5 mm 5 m/s 706 mmHg 96%
    04:00 +12°C° 12.5 mm 5 m/s 705 mmHg 96%
    05:00 +12°C° 12.5 mm 5 m/s 704 mmHg 96%
    06:00 +10°C° 1.6 mm 7 m/s 704 mmHg 94%
    07:00 +10°C° 1.6 mm 8 m/s 704 mmHg 92%
    08:00 +8°C° 1.6 mm 10 m/s 704 mmHg 90%
    09:00 +10°C° 0.3 mm 9 m/s 704 mmHg 88%
    10:00 +10°C° 0.3 mm 8 m/s 705 mmHg 87%
    11:00 +11°C° 0.3 mm 8 m/s 705 mmHg 85%
    12:00 +11°C° 0.8 mm 8 m/s 706 mmHg 85%
    13:00 +11°C° 0.8 mm 8 m/s 707 mmHg 86%
    14:00 +11°C° 0.8 mm 7 m/s 708 mmHg 86%
    15:00 +12°C° 0.1 mm 7 m/s 708 mmHg 84%
    16:00 +13°C° 0.1 mm 6 m/s 709 mmHg 82%
    17:00 +14°C° 0.1 mm 5 m/s 709 mmHg 80%
    18:00 +13°C° 0 mm 4 m/s 710 mmHg 84%
    19:00 +12°C° 0 mm 4 m/s 710 mmHg 88%
    20:00 +11°C° 0 mm 3 m/s 711 mmHg 91%
    21:00 +11°C° 0 mm 3 m/s 711 mmHg 92%
    22:00 +10°C° 0 mm 3 m/s 711 mmHg 93%
    23:00 +10°C° 0 mm 2 m/s 712 mmHg 94%

    25 Mai, Sâmbătă

    Timp Temperatura Precipitaţii Vânt Presiune Umiditate
    00:00 +9°C° 0 mm 2 m/s 712 mmHg 94%
    01:00 +9°C° 0 mm 2 m/s 712 mmHg 93%
    02:00 +8°C° 0 mm 2 m/s 712 mmHg 93%
    03:00 +8°C° 0 mm 2 m/s 713 mmHg 91%
    04:00 +8°C° 0 mm 2 m/s 713 mmHg 89%
    05:00 +9°C° 0 mm 1 m/s 714 mmHg 87%
    06:00 +10°C° 0 mm 2 m/s 714 mmHg 80%
    07:00 +14°C° 0 mm 2 m/s 715 mmHg 73%
    08:00 +16°C° 0 mm 2 m/s 716 mmHg 67%
    09:00 +17°C° 0 mm 3 m/s 716 mmHg 61%
    10:00 +18°C° 0 mm 3 m/s 716 mmHg 56%
    11:00 +19°C° 0 mm 3 m/s 717 mmHg 51%
    12:00 +20°C° 0 mm 3 m/s 717 mmHg 50%
    13:00 +20°C° 0 mm 3 m/s 716 mmHg 49%
    14:00 +21°C° 0 mm 3 m/s 716 mmHg 49%
    15:00 +20°C° 0 mm 4 m/s 716 mmHg 52%
    16:00 +20°C° 0 mm 4 m/s 716 mmHg 55%
    17:00 +19°C° 0 mm 4 m/s 716 mmHg 59%
    18:00 +17°C° 0 mm 4 m/s 716 mmHg 66%
    19:00 +14°C° 0 mm 4 m/s 716 mmHg 74%
    20:00 +13°C° 0 mm 3 m/s 716 mmHg 81%
    21:00 +12°C° 0 mm 3 m/s 716 mmHg 84%
    22:00 +11°C° 0 mm 3 m/s 716 mmHg 87%
    23:00 +10°C° 0 mm 4 m/s 716 mmHg 89%
    Arată mai mult